* Astronomy

Members Login
Username 
 
Password 
    Remember Me  
Post Info TOPIC: Asteroid 2011 WO46


L

Posts: 131433
Date:
Asteroid 2011 WO46
Permalink  
 


Orbital elements:
2011 WO46                                                Earth MOID = 0.0319 AU
Epoch 2011 Aug. 27.0 TT = JDT 2455800.5                 MPC
M 342.78261              (2000.0)            P               Q
n   0.52239877     Peri.  281.73394     +0.99268801     +0.10518373
a   1.5268673      Node    72.24990     -0.07141385     +0.90728887
e   0.4084030      Incl.    3.56490     -0.09731689     +0.40714037
P   1.89           H   24.9           G   0.15           U   8

MPEC 2011 - W71



__________________
Page 1 of 1  sorted by
 
Quick Reply

Please log in to post quick replies.



Create your own FREE Forum
Report Abuse
Powered by ActiveBoard